Location: Peebles
(55.6412°N, 3.1714°W)
Time: 19:32:08
(UTC+01:00)

Envisat - Pass Details

Date: 02 March 2024
Orbit: 762 x 764 km, 98.3° (Epoch: 20 April)

Event Time Altitude Azimuth Distance (km) Brightness Sun altitude
Rises 04:39:48 0° 13° (NNE) 3,246 6.7 -20.4°
Reaches altitude 10° 04:42:10 10° 8° (N) 2,315 5.8 -20.1°
Maximum altitude 04:47:04 49° 295° (WNW) 989 3.2 -19.4°
Enters shadow 04:48:30 38° 250° (WSW) 1,164 3.4 -19.2°
